Орто-Балаган

Россия / Республика Саха (Якутия)     63°09′47″N   144°01′03″E
темп.,
°C
ветер,
м/с
пор.,
м/с
влажн.,
%
обл.,
%
осадки,
мм/ч
давл.,
гПа
погр.,
м
1 марта, пн
пн123:00−35з119957 0.0 102319
02:00−36зсз1110089 0.0 102219
05:00−37з0010093 0.0 102119
08:00−38з009991 0.0 102119
11:00−34зюз009895 0.0 102032
14:00−32з118993 0.0 1018224
17:00−31з119396 0.0 101720
20:00−36с119975 0.0 102019
2 марта, вт
вт223:00−36всв019985 0.0 102019
02:00−37в0199100 0.0 102119
05:00−37ссз009999 0.0 102119
08:00−37юв0198100 0.0 102219
11:00−33з0093100 0.0 102149
14:00−31з1186100 0.0 1020182
17:00−29з1190100 0.0 1020143
20:00−31зсз1193100 0.0 102119
3 марта, ср
ср323:00−31з1197100 0.0 102219
02:00−30з1199100 0.1 102119
05:00−30з1199100 0.3 102019
08:00−31зюз1199100 0.1 102019
11:00−29зюз1197100 0.1 101842
14:00−27зюз219188 0.0 1014188
17:00−27з119594 0.0 101297
20:00−33з119882 0.0 101219
4 марта, чт
чт423:00−34зсз119985 0.0 101019
02:00−33зсз12100100 0.0 100819
05:00−32зсз1199100 0.1 100624
08:00−32з11100100 0.1 100534
11:00−31зсз2395100 0.2 1003293
14:00−29зсз4587100 0.1 1001615
17:00−29сз4586100 0.1 1001670
20:00−32сз3386100 0.0 100335
5 марта, пт
пт523:00−32сз2291100 0.1 100451
02:00−32зсз4597100 0.1 1005131
05:00−34зсз3397100 0.1 100689
08:00−35зсз1299100 0.1 100742
11:00−34з2293100 0.1 1008278
14:00−32зсз3384100 0.0 1007593
17:00−32зсз3485100 0.1 1008597
20:00−34зсз2296100 0.0 101054